QPF
0.00 0.00 0.00 0.01 0.01 0.01 0.00 0.00 0.02 0.05 0.07 0.08 0.08 0.07 0.07 0.05 0.04 0.03 0.02 0.02 0.02 0.03 0.03 0.03 0.02 0.03 0.03 0.03 0.02 0.02 0.03 0.03 0.03 0.04 0.05 0.05 0.06 0.06 0.07 0.08 0.11 0.12 0.12 0.11
0.00 0.00 0.00 0.00 0.01 0.01 0.00 0.01 0.02 0.02 0.04 0.04 0.03 0.03 0.02 0.02 0.01 0.00 0.00 0.00 0.00 0.01 0.01 0.01 0.01 0.01 0.01 0.01 0.01 0.01 0.01 0.01 0.01 0.01 0.02 0.03 0.03 0.04 0.04 0.04 0.04 0.07 0.09 0.10
0.00 0.00 0.00 0.01 0.01 0.00 0.00 0.01 0.01 0.01 0.01 0.01 0.01 0.01 0.01 0.00 0.00 0.00 0.00 0.00 0.00 0.00 0.00 0.00 0.00 0.00 0.00 0.00 0.00 0.00 0.00 0.00 0.00 0.00 0.01 0.02 0.02 0.03 0.03 0.03 0.03 0.04 0.05 0.06
0.01 0.00 0.00 0.01 0.00 0.00 0.00 0.00 0.00 0.00 0.00 0.00 0.00 0.00 0.00 0.00 0.00 0.00 0.00 0.00 0.00 0.00 0.00 0.00 0.00 0.00 0.00 0.00 0.00 0.00 0.00 0.00 0.00 0.00 0.00 0.01 0.01 0.02 0.03 0.03 0.03 0.04 0.04 0.05
0.00 0.00 0.00 0.00 0.00 0.00 0.00 0.00 0.00 0.00 0.00 0.00 0.00 0.00 0.00 0.00 0.00 0.00 0.00 0.00 0.00 0.00 0.00 0.00 0.00 0.00 0.00 0.00 0.00 0.00 0.00 0.00 0.00 0.00 0.00 0.00 0.01 0.02 0.02 0.02 0.03 0.05 0.04 0.05
0.00 0.00 0.00 0.00 0.00 0.00 0.00 0.00 0.00 0.00 0.00 0.00 0.00 0.00 0.00 0.00 0.00 0.00 0.00 0.00 0.00 0.00 0.00 0.00 0.00 0.00 0.00 0.00 0.00 0.00 0.00 0.00 0.00 0.00 0.00 0.00 0.00 0.01 0.02 0.01 0.01 0.03 0.04 0.04
0.00 0.00 0.00 0.00 0.00 0.00 0.00 0.00 0.00 0.00 0.00 0.00 0.00 0.00 0.00 0.00 0.00 0.00 0.00 0.00 0.00 0.00 0.00 0.00 0.00 0.00 0.00 0.00 0.00 0.00 0.00 0.00 0.00 0.00 0.00 0.00 0.00 0.00 0.00 0.01 0.01 0.01 0.01 0.02
0.00 0.00 0.00 0.00 0.00 0.00 0.00 0.00 0.00 0.00 0.00 0.00 0.00 0.00 0.00 0.00 0.00 0.00 0.00 0.00 0.00 0.00 0.00 0.00 0.00 0.00 0.00 0.00 0.00 0.00 0.00 0.00 0.00 0.00 0.00 0.00 0.00 0.00 0.00 0.01 0.01 0.01 0.01 0.01
0.00 0.00 0.00 0.00 0.00 0.00 0.00 0.00 0.00 0.00 0.00 0.00 0.00 0.00 0.00 0.00 0.00 0.00 0.00 0.00 0.00 0.00 0.00 0.00 0.00 0.00 0.00 0.00 0.00 0.00 0.00 0.00 0.00 0.00 0.00 0.00 0.00 0.00 0.01 0.01 0.01 0.01 0.01 0.02
0.00 0.00 0.00 0.00 0.00 0.00 0.00 0.00 0.00 0.00 0.00 0.00 0.00 0.00 0.00 0.00 0.00 0.00 0.00 0.00 0.00 0.00 0.00 0.00 0.00 0.00 0.00 0.00 0.00 0.00 0.00 0.00 0.00 0.00 0.01 0.01 0.01 0.01 0.01 0.01 0.01 0.01 0.01 0.02
0.00 0.00 0.00 0.00 0.00 0.00 0.00 0.00 0.00 0.00 0.00 0.00 0.00 0.00 0.00 0.00 0.00 0.00 0.00 0.00 0.00 0.00 0.00 0.00 0.00 0.00 0.00 0.00 0.00 0.00 0.00 0.00 0.00 0.01 0.01 0.01 0.01 0.01 0.01 0.02 0.02 0.02 0.02 0.02
0.00 0.00 0.00 0.00 0.00 0.00 0.00 0.00 0.00 0.00 0.00 0.00 0.00 0.00 0.00 0.00 0.00 0.00 0.00 0.00 0.00 0.00 0.00 0.00 0.00 0.00 0.00 0.00 0.00 0.00 0.00 0.00 0.01 0.01 0.01 0.01 0.01 0.01 0.02 0.02 0.02 0.02 0.03 0.03
0.00 0.00 0.00 0.00 0.00 0.00 0.00 0.00 0.00 0.00 0.00 0.00 0.00 0.00 0.00 0.00 0.00 0.00 0.00 0.00 0.00 0.00 0.00 0.00 0.00 0.00 0.00 0.00 0.00 0.00 0.01 0.01 0.01 0.01 0.01 0.01 0.02 0.02 0.02 0.02 0.02 0.02 0.03 0.03
0.00 0.00 0.00 0.00 0.00 0.00 0.00 0.00 0.00 0.00 0.00 0.00 0.00 0.00 0.00 0.00 0.00 0.00 0.00 0.00 0.00 0.00 0.00 0.00 0.00 0.00 0.00 0.00 0.00 0.00 0.00 0.01 0.01 0.01 0.01 0.01 0.02 0.02 0.02 0.03 0.02 0.02 0.02 0.03
0.00 0.00 0.00 0.00 0.00 0.00 0.00 0.00 0.00 0.00 0.00 0.00 0.00 0.00 0.00 0.00 0.00 0.00 0.00 0.00 0.00 0.00 0.00 0.00 0.00 0.00 0.00 0.00 0.00 0.00 0.00 0.01 0.01 0.01 0.02 0.02 0.02 0.02 0.02 0.02 0.03 0.03 0.03 0.03
0.00 0.00 0.00 0.00 0.00 0.00 0.00 0.00 0.00 0.00 0.00 0.00 0.00 0.00 0.00 0.00 0.00 0.00 0.00 0.00 0.00 0.00 0.00 0.00 0.00 0.00 0.00 0.00 0.00 0.00 0.00 0.00 0.01 0.01 0.01 0.02 0.02 0.03 0.02 0.02 0.02 0.02 0.02 0.02
0.00 0.00 0.00 0.00 0.00 0.00 0.00 0.00 0.00 0.00 0.00 0.00 0.00 0.00 0.00 0.00 0.00 0.00 0.00 0.00 0.00 0.00 0.00 0.00 0.00 0.00 0.00 0.00 0.00 0.00 0.00 0.00 0.00 0.01 0.01 0.01 0.02 0.02 0.02 0.03 0.02 0.02 0.02 0.02
0.00 0.00 0.00 0.00 0.00 0.00 0.00 0.00 0.00 0.00 0.00 0.00 0.00 0.00 0.00 0.00 0.00 0.00 0.00 0.00 0.00 0.00 0.00 0.00 0.00 0.00 0.00 0.00 0.00 0.00 0.00 0.00 0.00 0.01 0.01 0.01 0.02 0.02 0.02 0.02 0.02 0.02 0.02 0.02
0.00 0.00 0.00 0.00 0.00 0.00 0.00 0.00 0.00 0.00 0.00 0.00 0.00 0.00 0.00 0.00 0.00 0.00 0.00 0.00 0.00 0.00 0.00 0.00 0.00 0.00 0.00 0.00 0.00 0.00 0.00 0.00 0.01 0.01 0.01 0.01 0.01 0.01 0.02 0.02 0.02 0.02 0.02 0.02
0.00 0.00 0.00 0.00 0.00 0.00 0.00 0.00 0.00 0.00 0.00 0.00 0.00 0.00 0.00 0.00 0.00 0.00 0.00 0.00 0.00 0.00 0.00 0.00 0.00 0.00 0.00 0.00 0.00 0.01 0.01 0.01 0.01 0.01 0.01 0.01 0.01 0.01 0.01 0.02 0.02 0.02 0.02 0.02
0.00 0.00 0.00 0.00 0.00 0.00 0.00 0.00 0.00 0.00 0.00 0.00 0.00 0.00 0.00 0.00 0.00 0.00 0.00 0.00 0.00 0.00 0.00 0.00 0.00 0.00 0.00 0.01 0.01 0.01 0.01 0.01 0.01 0.01 0.01 0.01 0.02 0.01 0.01 0.01 0.01 0.01 0.02 0.02
0.00 0.00 0.00 0.00 0.00 0.00 0.00 0.00 0.00 0.00 0.00 0.00 0.00 0.00 0.00 0.00 0.00 0.00 0.00 0.00 0.00 0.00 0.00 0.00 0.00 0.00 0.01 0.01 0.01 0.00 0.00 0.01 0.01 0.01 0.01 0.02 0.02 0.02 0.02 0.01 0.01 0.01 0.01 0.02
0.00 0.00 0.00 0.00 0.00 0.00 0.00 0.00 0.00 0.00 0.00 0.00 0.00 0.00 0.00 0.00 0.00 0.00 0.00 0.00 0.00 0.00 0.00 0.00 0.00 0.01 0.01 0.01 0.00 0.00 0.00 0.01 0.01 0.01 0.01 0.02 0.02 0.02 0.02 0.02 0.01 0.01 0.01 0.01
0.00 0.00 0.00 0.00 0.00 0.00 0.00 0.00 0.00 0.00 0.00 0.00 0.00 0.00 0.00 0.00 0.00 0.00 0.00 0.00 0.00 0.00 0.00 0.00 0.00 0.00 0.01 0.00 0.00 0.00 0.01 0.01 0.01 0.01 0.01 0.01 0.01 0.01 0.01 0.01 0.01 0.01 0.01 0.01
0.00 0.00 0.00 0.00 0.00 0.00 0.00 0.00 0.00 0.00 0.00 0.00 0.00 0.00 0.00 0.00 0.00 0.00 0.00 0.00 0.00 0.00 0.00 0.00 0.00 0.00 0.00 0.00 0.00 0.00 0.01 0.01 0.01 0.01 0.01 0.01 0.01 0.01 0.01 0.01 0.01 0.01 0.01 0.01
0.00 0.00 0.00 0.00 0.00 0.00 0.00 0.00 0.00 0.00 0.00 0.00 0.00 0.00 0.00 0.00 0.00 0.00 0.00 0.00 0.00 0.00 0.00 0.00 0.00 0.00 0.00 0.00 0.00 0.00 0.01 0.01 0.01 0.01 0.01 0.01 0.01 0.01 0.01 0.01 0.01 0.01 0.01 0.01
0.00 0.00 0.00 0.00 0.00 0.00 0.00 0.00 0.00 0.00 0.00 0.00 0.00 0.00 0.00 0.00 0.00 0.00 0.00 0.00 0.00 0.00 0.00 0.00 0.00 0.00 0.00 0.00 0.00 0.00 0.00 0.01 0.01 0.01 0.01 0.01 0.01 0.01 0.02 0.02 0.02 0.02 0.01 0.01
MSLP
1012.74 1012.55 1012.35 1012.16 1012.00 1011.89 1011.87 1011.93 1012.08 1012.30 1012.57 1012.88 1013.17 1013.43 1013.63 1013.76 1013.83 1013.85 1013.82 1013.78 1013.74 1013.72 1013.72 1013.75 1013.80 1013.86 1013.94 1014.01 1014.07 1014.12 1014.17 1014.21 1014.23 1014.24 1014.23 1014.18 1014.09 1013.94 1013.73 1013.47 1013.16 1012.82 1012.47 1012.14
1013.46 1013.33 1013.16 1012.97 1012.78 1012.63 1012.54 1012.53 1012.60 1012.76 1013.00 1013.28 1013.59 1013.88 1014.15 1014.37 1014.53 1014.64 1014.71 1014.74 1014.76 1014.78 1014.80 1014.84 1014.88 1014.92 1014.97 1015.01 1015.03 1015.05 1015.05 1015.04 1015.01 1014.96 1014.88 1014.76 1014.58 1014.35 1014.06 1013.71 1013.32 1012.90 1012.48 1012.09
1014.19 1014.09 1013.94 1013.75 1013.55 1013.37 1013.23 1013.16 1013.19 1013.30 1013.50 1013.77 1014.08 1014.41 1014.72 1015.00 1015.23 1015.40 1015.53 1015.62 1015.67 1015.70 1015.73 1015.75 1015.76 1015.77 1015.77 1015.77 1015.75 1015.72 1015.68 1015.63 1015.56 1015.46 1015.33 1015.16 1014.93 1014.65 1014.31 1013.91 1013.47 1013.01 1012.55 1012.11
1014.81 1014.73 1014.59 1014.40 1014.19 1014.00 1013.84 1013.75 1013.74 1013.83 1014.02 1014.28 1014.60 1014.95 1015.29 1015.61 1015.88 1016.10 1016.27 1016.38 1016.45 1016.48 1016.49 1016.48 1016.46 1016.43 1016.38 1016.33 1016.27 1016.20 1016.12 1016.02 1015.92 1015.79 1015.64 1015.44 1015.19 1014.89 1014.53 1014.12 1013.66 1013.18 1012.70 1012.23
1015.26 1015.16 1015.01 1014.82 1014.62 1014.42 1014.27 1014.18 1014.18 1014.28 1014.48 1014.75 1015.09 1015.45 1015.82 1016.16 1016.46 1016.71 1016.89 1017.01 1017.09 1017.11 1017.11 1017.07 1017.02 1016.95 1016.86 1016.76 1016.66 1016.55 1016.43 1016.31 1016.17 1016.03 1015.86 1015.65 1015.41 1015.11 1014.76 1014.35 1013.90 1013.42 1012.93 1012.44
1015.48 1015.34 1015.17 1014.98 1014.78 1014.60 1014.48 1014.43 1014.47 1014.60 1014.82 1015.12 1015.48 1015.87 1016.25 1016.61 1016.93 1017.19 1017.39 1017.53 1017.60 1017.63 1017.62 1017.57 1017.49 1017.39 1017.28 1017.14 1017.00 1016.86 1016.70 1016.55 1016.40 1016.23 1016.05 1015.84 1015.60 1015.32 1014.99 1014.60 1014.17 1013.69 1013.20 1012.69
1015.48 1015.28 1015.08 1014.88 1014.70 1014.57 1014.50 1014.51 1014.60 1014.79 1015.05 1015.39 1015.78 1016.19 1016.59 1016.97 1017.30 1017.57 1017.79 1017.94 1018.03 1018.07 1018.06 1018.01 1017.93 1017.82 1017.69 1017.53 1017.36 1017.18 1017.00 1016.81 1016.63 1016.44 1016.24 1016.03 1015.79 1015.51 1015.19 1014.83 1014.41 1013.96 1013.46 1012.94
1015.27 1015.02 1014.80 1014.61 1014.47 1014.39 1014.39 1014.47 1014.64 1014.89 1015.22 1015.60 1016.01 1016.44 1016.85 1017.24 1017.59 1017.88 1018.11 1018.28 1018.40 1018.46 1018.48 1018.45 1018.38 1018.27 1018.13 1017.96 1017.76 1017.55 1017.33 1017.10 1016.88 1016.65 1016.42 1016.19 1015.93 1015.65 1015.34 1014.99 1014.59 1014.14 1013.65 1013.13
1014.93 1014.65 1014.42 1014.26 1014.18 1014.18 1014.26 1014.44 1014.69 1015.01 1015.39 1015.81 1016.25 1016.68 1017.11 1017.50 1017.85 1018.15 1018.40 1018.60 1018.75 1018.84 1018.89 1018.89 1018.84 1018.74 1018.60 1018.42 1018.20 1017.95 1017.68 1017.41 1017.13 1016.85 1016.57 1016.29 1016.01 1015.71 1015.39 1015.03 1014.64 1014.21 1013.73 1013.22
1014.53 1014.24 1014.04 1013.94 1013.94 1014.03 1014.22 1014.49 1014.83 1015.22 1015.65 1016.09 1016.55 1016.99 1017.41 1017.79 1018.14 1018.44 1018.70 1018.92 1019.10 1019.22 1019.30 1019.33 1019.30 1019.21 1019.07 1018.87 1018.62 1018.34 1018.02 1017.69 1017.34 1017.00 1016.66 1016.32 1015.99 1015.65 1015.31 1014.94 1014.55 1014.13 1013.68 1013.18
1014.12 1013.87 1013.73 1013.72 1013.82 1014.03 1014.33 1014.70 1015.12 1015.57 1016.03 1016.50 1016.95 1017.38 1017.78 1018.15 1018.48 1018.78 1019.04 1019.26 1019.45 1019.60 1019.69 1019.73 1019.71 1019.63 1019.48 1019.26 1018.98 1018.66 1018.29 1017.89 1017.49 1017.07 1016.66 1016.26 1015.87 1015.48 1015.10 1014.71 1014.32 1013.91 1013.48 1013.02
1013.75 1013.57 1013.54 1013.64 1013.86 1014.19 1014.60 1015.06 1015.55 1016.05 1016.55 1017.02 1017.46 1017.87 1018.24 1018.57 1018.88 1019.15 1019.39 1019.60 1019.79 1019.93 1020.02 1020.06 1020.03 1019.93 1019.77 1019.53 1019.22 1018.85 1018.44 1017.99 1017.53 1017.05 1016.57 1016.11 1015.65 1015.21 1014.78 1014.37 1013.96 1013.56 1013.15 1012.74
1013.42 1013.35 1013.43 1013.66 1014.01 1014.46 1014.97 1015.51 1016.07 1016.61 1017.13 1017.60 1018.02 1018.40 1018.73 1019.02 1019.29 1019.52 1019.73 1019.92 1020.07 1020.18 1020.25 1020.26 1020.21 1020.09 1019.89 1019.63 1019.29 1018.90 1018.45 1017.97 1017.46 1016.94 1016.41 1015.89 1015.37 1014.88 1014.41 1013.95 1013.53 1013.12 1012.74 1012.36
1013.14 1013.18 1013.39 1013.74 1014.21 1014.76 1015.36 1015.98 1016.59 1017.16 1017.68 1018.15 1018.55 1018.89 1019.19 1019.44 1019.66 1019.85 1020.02 1020.15 1020.26 1020.33 1020.35 1020.32 1020.23 1020.07 1019.85 1019.55 1019.20 1018.79 1018.33 1017.83 1017.30 1016.75 1016.19 1015.63 1015.07 1014.53 1014.01 1013.52 1013.06 1012.65 1012.26 1011.91
1012.89 1013.04 1013.36 1013.81 1014.38 1015.02 1015.69 1016.37 1017.01 1017.60 1018.13 1018.59 1018.98 1019.30 1019.56 1019.78 1019.95 1020.10 1020.21 1020.30 1020.35 1020.36 1020.33 1020.24 1020.10 1019.90 1019.64 1019.33 1018.96 1018.54 1018.09 1017.59 1017.07 1016.52 1015.95 1015.36 1014.78 1014.19 1013.63 1013.09 1012.59 1012.14 1011.75 1011.40
1012.68 1012.92 1013.32 1013.86 1014.50 1015.20 1015.92 1016.62 1017.29 1017.89 1018.43 1018.88 1019.25 1019.56 1019.80 1019.99 1020.14 1020.25 1020.32 1020.35 1020.34 1020.29 1020.19 1020.04 1019.85 1019.60 1019.32 1018.98 1018.61 1018.21 1017.77 1017.30 1016.79 1016.26 1015.70 1015.11 1014.50 1013.89 1013.28 1012.69 1012.14 1011.65 1011.21 1010.84
1012.54 1012.84 1013.30 1013.88 1014.56 1015.28 1016.02 1016.74 1017.42 1018.02 1018.56 1019.01 1019.38 1019.68 1019.92 1020.10 1020.22 1020.30 1020.33 1020.32 1020.25 1020.14 1019.98 1019.78 1019.53 1019.25 1018.93 1018.58 1018.21 1017.82 1017.41 1016.97 1016.50 1015.99 1015.45 1014.86 1014.25 1013.61 1012.96 1012.33 1011.72 1011.16 1010.68 1010.26
1012.50 1012.84 1013.32 1013.92 1014.60 1015.33 1016.06 1016.77 1017.44 1018.04 1018.57 1019.02 1019.40 1019.70 1019.94 1020.11 1020.23 1020.29 1020.29 1020.24 1020.13 1019.97 1019.76 1019.50 1019.20 1018.88 1018.53 1018.17 1017.80 1017.42 1017.03 1016.62 1016.19 1015.71 1015.19 1014.62 1014.00 1013.35 1012.67 1011.99 1011.33 1010.72 1010.17 1009.70
1012.62 1012.97 1013.45 1014.04 1014.70 1015.40 1016.11 1016.79 1017.43 1018.02 1018.53 1018.98 1019.35 1019.66 1019.90 1020.08 1020.19 1020.24 1020.23 1020.15 1020.01 1019.80 1019.54 1019.24 1018.90 1018.54 1018.16 1017.79 1017.41 1017.04 1016.66 1016.28 1015.86 1015.41 1014.91 1014.35 1013.74 1013.08 1012.39 1011.68 1010.99 1010.33 1009.73 1009.21
1012.91 1013.26 1013.73 1014.29 1014.92 1015.58 1016.24 1016.88 1017.48 1018.03 1018.52 1018.95 1019.32 1019.62 1019.86 1020.03 1020.14 1020.19 1020.16 1020.06 1019.89 1019.65 1019.36 1019.02 1018.64 1018.25 1017.85 1017.45 1017.06 1016.68 1016.31 1015.92 1015.52 1015.09 1014.60 1014.06 1013.47 1012.81 1012.12 1011.41 1010.70 1010.02 1009.39 1008.83
1013.37 1013.72 1014.17 1014.70 1015.28 1015.88 1016.48 1017.06 1017.61 1018.12 1018.57 1018.97 1019.31 1019.60 1019.82 1019.99 1020.09 1020.12 1020.08 1019.97 1019.77 1019.52 1019.20 1018.83 1018.42 1018.00 1017.58 1017.15 1016.75 1016.35 1015.97 1015.58 1015.18 1014.75 1014.27 1013.75 1013.17 1012.54 1011.87 1011.18 1010.49 1009.81 1009.18 1008.61
1013.96 1014.30 1014.73 1015.22 1015.75 1016.30 1016.83 1017.35 1017.83 1018.28 1018.68 1019.03 1019.34 1019.59 1019.79 1019.94 1020.02 1020.04 1019.98 1019.85 1019.65 1019.37 1019.04 1018.65 1018.23 1017.79 1017.34 1016.90 1016.47 1016.05 1015.65 1015.24 1014.83 1014.40 1013.94 1013.44 1012.89 1012.29 1011.66 1011.01 1010.35 1009.72 1009.11 1008.55
1014.58 1014.94 1015.35 1015.81 1016.29 1016.77 1017.24 1017.69 1018.10 1018.48 1018.82 1019.12 1019.37 1019.58 1019.74 1019.85 1019.91 1019.90 1019.83 1019.69 1019.48 1019.20 1018.86 1018.47 1018.04 1017.59 1017.13 1016.68 1016.23 1015.79 1015.36 1014.95 1014.52 1014.09 1013.64 1013.15 1012.63 1012.07 1011.49 1010.90 1010.30 1009.71 1009.15 1008.63
1015.16 1015.53 1015.94 1016.37 1016.80 1017.23 1017.63 1018.01 1018.35 1018.66 1018.93 1019.17 1019.36 1019.52 1019.64 1019.71 1019.74 1019.71 1019.63 1019.48 1019.26 1018.99 1018.65 1018.27 1017.85 1017.41 1016.95 1016.49 1016.03 1015.58 1015.14 1014.70 1014.27 1013.83 1013.38 1012.91 1012.42 1011.91 1011.38 1010.84 1010.30 1009.77 1009.26 1008.78
1015.62 1016.00 1016.40 1016.80 1017.19 1017.57 1017.92 1018.24 1018.52 1018.77 1018.98 1019.15 1019.30 1019.40 1019.48 1019.52 1019.51 1019.46 1019.36 1019.21 1019.00 1018.73 1018.42 1018.06 1017.66 1017.24 1016.79 1016.34 1015.88 1015.43 1014.98 1014.54 1014.10 1013.66 1013.21 1012.75 1012.28 1011.80 1011.31 1010.81 1010.33 1009.84 1009.38 1008.93
1015.88 1016.27 1016.66 1017.04 1017.40 1017.74 1018.05 1018.32 1018.56 1018.76 1018.93 1019.06 1019.16 1019.23 1019.27 1019.28 1019.25 1019.18 1019.07 1018.92 1018.72 1018.47 1018.18 1017.85 1017.48 1017.09 1016.67 1016.23 1015.79 1015.35 1014.90 1014.45 1014.00 1013.56 1013.10 1012.65 1012.18 1011.72 1011.25 1010.78 1010.32 1009.87 1009.43 1009.01
1015.91 1016.30 1016.69 1017.06 1017.40 1017.72 1018.01 1018.26 1018.48 1018.66 1018.80 1018.92 1018.99 1019.04 1019.06 1019.04 1019.00 1018.92 1018.81 1018.65 1018.46 1018.23 1017.97 1017.66 1017.33 1016.96 1016.57 1016.16 1015.74 1015.31 1014.87 1014.42 1013.96 1013.51 1013.04 1012.58 1012.11 1011.64 1011.17 1010.70 1010.25 1009.80 1009.36 1008.94
Thickness
5509 5514 5516 5517 5519 5523 5519 5519 5513 5513 5513 5510 5508 5508 5509 5510 5512 5512 5513 5514 5514 5515 5516 5519 5523 5526 5529 5533 5536 5540 5543 5545 5546 5548 5551 5553 5556 5558 5559 5560 5560 5561 5560 5559
5510 5516 5517 5517 5518 5521 5521 5519 5517 5516 5513 5514 5511 5509 5507 5507 5508 5508 5508 5509 5510 5511 5512 5513 5515 5519 5522 5525 5527 5531 5533 5534 5536 5538 5540 5542 5543 5545 5547 5547 5547 5547 5547 5546
5503 5509 5517 5512 5516 5520 5520 5519 5521 5517 5516 5514 5511 5510 5506 5505 5505 5504 5504 5505 5505 5505 5506 5507 5509 5512 5514 5516 5519 5522 5523 5524 5526 5528 5529 5530 5532 5532 5533 5532 5532 5532 5532 5531
5499 5506 5504 5516 5522 5524 5522 5520 5520 5520 5517 5514 5511 5506 5504 5504 5502 5501 5501 5500 5500 5500 5501 5502 5503 5505 5507 5509 5511 5512 5513 5514 5514 5516 5517 5518 5518 5518 5517 5518 5517 5516 5515 5515
5497 5500 5508 5519 5524 5523 5521 5518 5519 5517 5513 5510 5508 5505 5501 5502 5501 5499 5498 5498 5496 5496 5496 5497 5497 5498 5500 5501 5502 5502 5502 5502 5503 5503 5504 5504 5504 5504 5503 5502 5501 5500 5499 5498
5501 5512 5516 5525 5528 5527 5524 5517 5521 5518 5514 5510 5510 5503 5500 5500 5497 5496 5495 5493 5492 5491 5491 5490 5490 5490 5491 5490 5490 5489 5489 5489 5490 5490 5489 5488 5487 5486 5486 5485 5483 5482 5480 5478
5501 5506 5512 5526 5527 5527 5517 5524 5523 5519 5516 5512 5509 5505 5500 5497 5494 5492 5491 5489 5487 5486 5484 5482 5482 5481 5480 5478 5477 5476 5477 5476 5475 5474 5473 5472 5471 5469 5468 5467 5465 5463 5460 5458
5499 5505 5514 5528 5525 5521 5523 5524 5522 5518 5515 5511 5505 5501 5497 5494 5491 5488 5486 5484 5482 5478 5476 5475 5474 5472 5470 5468 5466 5465 5464 5463 5461 5459 5456 5455 5452 5450 5447 5445 5442 5440 5438 5436
5508 5517 5524 5524 5526 5527 5522 5521 5520 5515 5512 5508 5502 5498 5494 5490 5486 5483 5480 5477 5474 5471 5468 5466 5464 5462 5460 5458 5456 5454 5451 5448 5445 5442 5439 5435 5432 5429 5426 5422 5419 5417 5415 5413
5511 5518 5522 5523 5523 5524 5523 5521 5518 5514 5509 5506 5500 5495 5490 5485 5480 5477 5474 5470 5467 5463 5459 5456 5454 5452 5449 5447 5444 5440 5437 5433 5429 5425 5421 5417 5412 5407 5403 5399 5396 5394 5392 5391
5510 5517 5520 5523 5521 5521 5519 5516 5513 5510 5506 5501 5496 5491 5485 5479 5475 5471 5467 5462 5458 5454 5450 5447 5444 5441 5438 5434 5431 5427 5422 5418 5413 5408 5402 5397 5392 5385 5381 5377 5373 5371 5370 5367
5516 5520 5519 5522 5523 5519 5515 5512 5508 5504 5499 5495 5491 5485 5480 5473 5468 5464 5459 5455 5450 5446 5442 5438 5434 5430 5427 5423 5418 5412 5407 5401 5395 5388 5383 5377 5372 5368 5363 5358 5356 5352 5349 5347
5523 5524 5520 5522 5520 5516 5513 5509 5504 5500 5494 5488 5484 5479 5473 5467 5461 5456 5451 5447 5442 5438 5433 5429 5424 5419 5414 5409 5402 5396 5389 5383 5376 5370 5364 5357 5352 5348 5346 5343 5338 5334 5331 5328
5518 5517 5516 5516 5513 5511 5507 5503 5497 5492 5487 5482 5476 5470 5465 5459 5453 5448 5443 5438 5433 5428 5423 5418 5412 5406 5401 5394 5387 5380 5372 5365 5358 5351 5344 5338 5333 5329 5325 5324 5322 5319 5315 5311
5515 5515 5514 5511 5507 5502 5498 5493 5487 5481 5476 5471 5466 5461 5455 5450 5444 5439 5433 5428 5423 5417 5412 5405 5399 5393 5386 5379 5371 5363 5355 5348 5341 5334 5328 5322 5317 5313 5309 5306 5304 5302 5299 5296
5509 5507 5505 5502 5499 5494 5489 5485 5480 5474 5468 5463 5456 5452 5446 5441 5434 5428 5422 5417 5411 5406 5400 5393 5386 5379 5372 5364 5355 5347 5339 5333 5326 5319 5313 5308 5303 5298 5295 5291 5289 5286 5284 5281
5500 5499 5496 5493 5490 5486 5483 5479 5474 5467 5460 5454 5448 5442 5436 5430 5423 5417 5411 5406 5400 5393 5387 5380 5373 5365 5357 5349 5340 5332 5325 5318 5312 5305 5299 5294 5289 5285 5281 5277 5275 5273 5271 5268
5501 5500 5497 5494 5488 5481 5475 5470 5464 5458 5452 5446 5439 5432 5425 5419 5413 5407 5400 5394 5388 5381 5374 5367 5360 5352 5343 5335 5327 5319 5311 5304 5298 5291 5286 5281 5277 5272 5268 5265 5263 5261 5260 5258
5491 5490 5487 5484 5480 5474 5467 5460 5454 5448 5442 5435 5429 5422 5415 5409 5403 5396 5389 5382 5375 5368 5363 5355 5348 5339 5330 5322 5315 5307 5299 5292 5285 5279 5274 5270 5265 5261 5256 5254 5252 5250 5249 5249
5479 5478 5475 5472 5468 5462 5456 5449 5443 5436 5430 5424 5418 5410 5404 5398 5392 5385 5378 5371 5364 5357 5350 5343 5335 5327 5319 5311 5304 5295 5287 5280 5273 5267 5263 5258 5254 5250 5247 5244 5242 5241 5240 5240
5466 5464 5462 5457 5452 5448 5443 5438 5432 5425 5419 5413 5407 5401 5394 5387 5380 5373 5366 5359 5353 5346 5339 5332 5324 5316 5308 5301 5294 5284 5277 5269 5263 5257 5252 5248 5244 5240 5238 5235 5233 5233 5232 5232
5451 5449 5447 5443 5438 5433 5428 5424 5419 5414 5407 5401 5395 5389 5382 5375 5369 5362 5356 5349 5342 5336 5329 5320 5312 5305 5299 5292 5282 5273 5266 5259 5253 5247 5242 5238 5234 5232 5229 5227 5225 5225 5225 5225
5437 5435 5432 5429 5425 5420 5414 5410 5406 5401 5395 5390 5384 5378 5371 5365 5358 5351 5345 5338 5331 5325 5318 5310 5303 5297 5290 5280 5270 5262 5255 5249 5243 5238 5233 5229 5226 5223 5221 5219 5218 5218 5218 5219
5424 5421 5418 5414 5410 5406 5401 5397 5393 5388 5383 5378 5373 5367 5360 5353 5347 5340 5334 5328 5321 5315 5307 5299 5293 5286 5278 5268 5259 5252 5245 5239 5234 5229 5224 5221 5218 5215 5213 5212 5212 5212 5213 5214
5411 5407 5403 5400 5397 5395 5391 5385 5380 5375 5371 5366 5361 5355 5350 5343 5336 5330 5323 5316 5310 5304 5296 5288 5282 5275 5266 5257 5249 5242 5236 5230 5226 5222 5217 5213 5211 5209 5208 5207 5207 5207 5208 5209
5398 5395 5392 5390 5387 5384 5379 5374 5370 5365 5360 5355 5350 5345 5339 5332 5326 5319 5312 5305 5299 5293 5285 5277 5270 5263 5255 5247 5240 5234 5228 5223 5218 5213 5210 5208 5206 5205 5204 5203 5203 5204 5205 5206
5386 5383 5380 5377 5375 5372 5368 5364 5360 5355 5351 5346 5341 5335 5329 5322 5315 5308 5301 5294 5288 5281 5275 5268 5260 5253 5245 5238 5232 5226 5221 5217 5212 5208 5206 5204 5202 5201 5201 5200 5201 5202 5203 5204